Location: Colorado Springs
(38.8340°N, 104.8210°W)
Time: 00:16:10
(UTC-07:00)

OTV 5 (USA 277) - Pass Details

Date: 15 October 2017
Orbit: 404 x 417 km, 43.0° (Epoch: 07 September)

Event Time Altitude Azimuth Distance (km) Brightness Sun altitude
Rises 19:50:55 0° 283° (WNW) 2,354 ? -18.4°
Reaches altitude 10° 19:53:07 10° 291° (WNW) 1,491 ? -18.8°
Maximum altitude 19:56:18 38° 2° (N) 648 ? -19.4°
Enters shadow 19:56:30 38° 12° (NNE) 653 ? -19.5°
